Hourly Weather Tashkent

Today, 13 May, Thursday

Time Temperature Precipitation Wind Pressure Humidity
00:00 +18°C° 0 mm 2 mps 719 mmHg 51%
01:00 +18°C° 0 mm 2 mps 718 mmHg 51%
02:00 +18°C° 0 mm 2 mps 718 mmHg 51%
03:00 +17°C° 0 mm 2 mps 718 mmHg 51%
04:00 +17°C° 0 mm 2 mps 718 mmHg 51%
05:00 +16°C° 0 mm 2 mps 719 mmHg 51%
06:00 +18°C° 0 mm 2 mps 719 mmHg 48%
07:00 +19°C° 0 mm 2 mps 719 mmHg 45%
08:00 +22°C° 0 mm 1 mps 720 mmHg 43%
09:00 +23°C° 0 mm 1 mps 720 mmHg 39%
10:00 +25°C° 0 mm 1 mps 720 mmHg 35%
11:00 +27°C° 0 mm 1 mps 720 mmHg 32%
12:00 +28°C° 0 mm 2 mps 720 mmHg 30%
13:00 +29°C° 0 mm 3 mps 720 mmHg 27%
14:00 +30°C° 0 mm 4 mps 720 mmHg 25%
15:00 +30°C° 0 mm 4 mps 719 mmHg 24%
16:00 +30°C° 0 mm 4 mps 719 mmHg 24%
17:00 +30°C° 0 mm 4 mps 719 mmHg 24%
18:00 +27°C° 0 mm 4 mps 719 mmHg 31%
19:00 +25°C° 0 mm 3 mps 719 mmHg 38%
20:00 +22°C° 0 mm 3 mps 718 mmHg 45%
21:00 +21°C° 0 mm 3 mps 718 mmHg 45%
22:00 +20°C° 0 mm 2 mps 718 mmHg 45%
23:00 +19°C° 0 mm 2 mps 718 mmHg 45%

Tomorrow, 14 May, Friday

Time Temperature Precipitation Wind Pressure Humidity
00:00 +19°C° 0 mm 2 mps 718 mmHg 46%
01:00 +19°C° 0 mm 2 mps 718 mmHg 47%
02:00 +18°C° 0 mm 2 mps 718 mmHg 48%
03:00 +18°C° 0 mm 2 mps 718 mmHg 50%
04:00 +17°C° 0 mm 2 mps 718 mmHg 51%
05:00 +16°C° 0 mm 2 mps 719 mmHg 52%
06:00 +17°C° 0 mm 2 mps 719 mmHg 47%
07:00 +19°C° 0 mm 2 mps 720 mmHg 42%
08:00 +20°C° 0 mm 2 mps 720 mmHg 37%
09:00 +23°C° 0 mm 2 mps 720 mmHg 34%
10:00 +25°C° 0 mm 1 mps 720 mmHg 30%
11:00 +27°C° 0 mm 1 mps 720 mmHg 27%
12:00 +28°C° 0 mm 2 mps 720 mmHg 26%
13:00 +29°C° 0 mm 2 mps 720 mmHg 26%
14:00 +30°C° 0 mm 3 mps 720 mmHg 25%
15:00 +30°C° 0 mm 4 mps 719 mmHg 25%
16:00 +30°C° 0 mm 4 mps 719 mmHg 26%
17:00 +30°C° 0 mm 5 mps 719 mmHg 27%
18:00 +27°C° 0 mm 5 mps 718 mmHg 32%
19:00 +25°C° 0 mm 4 mps 718 mmHg 38%
20:00 +22°C° 0 mm 4 mps 718 mmHg 43%
21:00 +21°C° 0 mm 3 mps 718 mmHg 45%
22:00 +20°C° 0 mm 3 mps 717 mmHg 46%
23:00 +19°C° 0 mm 2 mps 717 mmHg 47%

Day after tomorrow, 15 May, Saturday

Time Temperature Precipitation Wind Pressure Humidity
00:00 +19°C° 0 mm 2 mps 717 mmHg 49%
01:00 +18°C° 0 mm 3 mps 717 mmHg 50%
02:00 +18°C° 0 mm 3 mps 717 mmHg 52%
03:00 +17°C° 0 mm 3 mps 717 mmHg 53%
04:00 +17°C° 0 mm 3 mps 717 mmHg 54%
05:00 +16°C° 0 mm 3 mps 717 mmHg 55%
06:00 +17°C° 0 mm 3 mps 718 mmHg 51%
07:00 +19°C° 0 mm 4 mps 718 mmHg 47%
08:00 +20°C° 0 mm 4 mps 719 mmHg 43%
09:00 +22°C° 0 mm 4 mps 719 mmHg 39%
10:00 +25°C° 0 mm 3 mps 719 mmHg 35%
11:00 +26°C° 0 mm 3 mps 719 mmHg 31%
12:00 +27°C° 0 mm 2 mps 719 mmHg 29%
13:00 +29°C° 0 mm 2 mps 719 mmHg 27%
14:00 +30°C° 0 mm 1 mps 719 mmHg 25%
15:00 +30°C° 0 mm 1 mps 718 mmHg 26%
16:00 +30°C° 0 mm 2 mps 718 mmHg 26%
17:00 +30°C° 0 mm 2 mps 717 mmHg 27%
18:00 +28°C° 0 mm 2 mps 717 mmHg 33%
19:00 +26°C° 0 mm 2 mps 717 mmHg 39%
20:00 +24°C° 0 mm 2 mps 717 mmHg 45%
21:00 +23°C° 0 mm 2 mps 717 mmHg 47%
22:00 +21°C° 0 mm 2 mps 717 mmHg 49%
23:00 +21°C° 0 mm 2 mps 717 mmHg 51%

16 May, Sunday

Time Temperature Precipitation Wind Pressure Humidity
00:00 +20°C° 0 mm 2 mps 717 mmHg 51%
01:00 +20°C° 0 mm 2 mps 717 mmHg 51%
02:00 +19°C° 0 mm 2 mps 716 mmHg 52%
03:00 +19°C° 0 mm 2 mps 717 mmHg 51%
04:00 +18°C° 0 mm 2 mps 717 mmHg 51%
05:00 +18°C° 0 mm 2 mps 717 mmHg 51%
06:00 +19°C° 0 mm 2 mps 718 mmHg 47%
07:00 +21°C° 0 mm 2 mps 718 mmHg 43%
08:00 +23°C° 0 mm 2 mps 719 mmHg 39%
09:00 +25°C° 0 mm 2 mps 719 mmHg 35%
10:00 +27°C° 0 mm 2 mps 719 mmHg 31%
11:00 +29°C° 0 mm 2 mps 719 mmHg 26%
12:00 +30°C° 0 mm 1 mps 719 mmHg 24%
13:00 +31°C° 0 mm 1 mps 719 mmHg 21%
14:00 +32°C° 0 mm 1 mps 718 mmHg 18%
15:00 +32°C° 0 mm 1 mps 718 mmHg 18%
16:00 +32°C° 0 mm 1 mps 718 mmHg 17%
17:00 +33°C° 0 mm 1 mps 717 mmHg 16%
18:00 +30°C° 0 mm 2 mps 717 mmHg 23%
19:00 +28°C° 0 mm 2 mps 717 mmHg 29%
20:00 +26°C° 0 mm 2 mps 717 mmHg 36%
21:00 +25°C° 0 mm 2 mps 717 mmHg 35%
22:00 +24°C° 0 mm 2 mps 717 mmHg 35%
23:00 +23°C° 0 mm 2 mps 717 mmHg 35%

17 May, Monday

Time Temperature Precipitation Wind Pressure Humidity
00:00 +23°C° 0 mm 2 mps 717 mmHg 35%
01:00 +21°C° 0 mm 3 mps 717 mmHg 35%
02:00 +21°C° 0 mm 3 mps 717 mmHg 35%
03:00 +21°C° 0 mm 3 mps 717 mmHg 33%
04:00 +21°C° 0 mm 3 mps 717 mmHg 32%
05:00 +20°C° 0 mm 3 mps 717 mmHg 31%
06:00 +23°C° 0 mm 2 mps 717 mmHg 29%
07:00 +25°C° 0 mm 2 mps 718 mmHg 27%
08:00 +28°C° 0 mm 2 mps 718 mmHg 25%
09:00 +29°C° 0 mm 2 mps 718 mmHg 22%
10:00 +31°C° 0 mm 2 mps 718 mmHg 20%
11:00 +34°C° 0 mm 2 mps 719 mmHg 17%
12:00 +33°C° 0 mm 1 mps 718 mmHg 15%
13:00 +34°C° 0 mm 1 mps 718 mmHg 14%
14:00 +35°C° 0 mm 1 mps 718 mmHg 12%
15:00 +35°C° 0 mm 1 mps 718 mmHg 12%
16:00 +36°C° 0 mm 2 mps 717 mmHg 12%
17:00 +36°C° 0 mm 2 mps 717 mmHg 12%
18:00 +34°C° 0 mm 2 mps 717 mmHg 15%
19:00 +30°C° 0 mm 2 mps 717 mmHg 18%
20:00 +28°C° 0 mm 2 mps 716 mmHg 21%
21:00 +27°C° 0 mm 2 mps 716 mmHg 21%
22:00 +26°C° 0 mm 2 mps 716 mmHg 22%
23:00 +25°C° 0 mm 3 mps 716 mmHg 22%

18 May, Tuesday

Time Temperature Precipitation Wind Pressure Humidity
00:00 +25°C° 0 mm 3 mps 716 mmHg 22%
01:00 +25°C° 0 mm 3 mps 716 mmHg 22%
02:00 +24°C° 0 mm 2 mps 716 mmHg 22%
03:00 +24°C° 0 mm 2 mps 716 mmHg 22%
04:00 +24°C° 0 mm 2 mps 716 mmHg 22%
05:00 +24°C° 0 mm 2 mps 716 mmHg 22%
06:00 +25°C° 0 mm 2 mps 716 mmHg 23%
07:00 +27°C° 0 mm 2 mps 716 mmHg 23%
08:00 +28°C° 0 mm 1 mps 717 mmHg 24%
09:00 +30°C° 0 mm 2 mps 717 mmHg 22%
10:00 +31°C° 0 mm 2 mps 717 mmHg 20%
11:00 +34°C° 0 mm 2 mps 717 mmHg 18%
12:00 +35°C° 0 mm 2 mps 717 mmHg 17%
13:00 +36°C° 0 mm 2 mps 716 mmHg 15%
14:00 +36°C° 0 mm 1 mps 716 mmHg 14%
15:00 +37°C° 0 mm 2 mps 716 mmHg 14%
16:00 +36°C° 0 mm 3 mps 716 mmHg 14%
17:00 +36°C° 0 mm 3 mps 715 mmHg 14%
18:00 +34°C° 0 mm 3 mps 716 mmHg 21%
19:00 +30°C° 0 mm 3 mps 716 mmHg 28%
20:00 +27°C° 0 mm 3 mps 716 mmHg 35%
21:00 +26°C° 0 mm 3 mps 716 mmHg 35%
22:00 +25°C° 0 mm 2 mps 716 mmHg 36%
23:00 +25°C° 0 mm 2 mps 716 mmHg 36%
Show more